パンスターズ彗星

C/2019 A9 ( PanSTARRS )

English version
Home page
Updated on May 24, 2020

---------------------------------------------------------------------

・ プロフィール

発見日 2019年1月14日
発見光度 20.3等
発見者 Pan-STARRS 1 telescope (Haleakala)

・ 写真集

・ 軌道要素

Epoch 2019 July 16.0 TT = JDT 2458680.5
T 2019 July 26.52538 TT                                 Rudenko
q   1.4263966            (2000.0)            P               Q
z  +0.0257929      Peri.  237.80142     -0.16008648     +0.07117764
 +/-0.0000000      Node   278.36820     +0.80750243     -0.56420270
e   0.9632090      Incl.   84.34211     -0.56772541     -0.82256249
From 194 observations 2018 Dec. 18-2020 May 20, mean residual 1".0.

・ 星図

・ 光度変化

        m1 = 6.0 + 5 logΔ + 25.0 log r(t - 30)

---------------------------------------------------------------------

軌道要素はM.P.E.C. 2020-K117に掲載されたものです。
星図はステラナビゲータ Ver.10 (アストロアーツ) で作成したものです。
光度グラフはComet for Windowsで作成したものです。

---------------------------------------------------------------------

Copyright(C) Seiichi Yoshida (comet@aerith.net). All rights reserved.